Prerov, Czech Republic

6:10 AM CET on December 04, 2016 (GMT +0100)
Prerov

Weather History for LKPO - January, 2013

Change the Weather History Date:

Monday, January 21, 2013

  Actual Average Record
Temperature  
Mean Temperature 26 °F -  
Max Temperature 28 °F - - ()
Min Temperature 24 °F - - ()
Degree Days  
Heating Degree Days 39    
Moisture  
Dew Point 24 °F    
Average Humidity 91    
Maximum Humidity 93    
Minimum Humidity 80    
Precipitation  
Precipitation 0.00 in - - ()
Sea Level Pressure  
Sea Level Pressure 29.46 in    
Wind  
Wind Speed 9 mph ()    
Max Wind Speed 16 mph    
Max Gust Speed -    
Visibility 1.5 miles    
Events Rain , Snow    
T = Trace of Precipitation, MM = Missing Value Source: Averaged Metar Reports

Daily Weather History Graph

Daily Weather History Graph

Search for Another Location

Airport or City:

Trip Planner

Search our weather history database for the weather conditions in past years. The results will help you decide how hot, cold, wet, or windy it might be!

Date:

Astronomy

Jan. 21, 2013 Rise Set
Actual Time 7:35 AM CET 4:28 PM CET
Civil Twilight 6:59 AM CET 5:04 PM CET
Nautical Twilight 6:20 AM CET 5:43 PM CET
Astronomical Twilight 5:42 AM CET 6:21 PM CET
Moon 11:55 AM CET (1/21) 2:47 AM CET (1/21)
Length of Visible Light 10h 04m
Length of Day
8h 53m
Waxing Gibbous, 73% of the Moon is Illuminated
Jan 21
Waxing Gibbous
Jan 27
Full
Feb 3
Last Quarter
Feb 10
New
Feb 17
First Quarter

Hourly Weather History & Observations

Time (CET) Temp. Windchill Dew Point Humidity Pressure Visibility Wind Dir Wind Speed Gust Speed Precip Events Conditions
12:00 AM 26.6 °F 14.7 °F 24.8 °F 93% 29.44 in 0.9 mi ENE 15.0 mph - N/A   Light Freezing Rain
1:00 AM 26.6 °F 14.3 °F 24.8 °F 93% 29.44 in 0.9 mi East 16.1 mph - N/A   Light Freezing Rain
2:00 AM 26.6 °F 14.3 °F 24.8 °F 93% 29.42 in 0.9 mi ENE 16.1 mph - N/A   Light Freezing Rain
3:00 AM 26.6 °F 15.2 °F 24.8 °F 93% 29.42 in 0.7 mi ENE 13.8 mph - N/A   Light Freezing Rain
4:00 AM 26.6 °F 17.5 °F 24.8 °F 93% 29.44 in 0.7 mi NE 9.2 mph - N/A   Light Freezing Rain
5:00 AM 26.6 °F 19.1 °F 24.8 °F 93% 29.42 in 0.7 mi ENE 6.9 mph - N/A   Light Freezing Rain
6:00 AM 26.6 °F 15.7 °F 24.8 °F 93% 29.42 in 0.7 mi ENE 12.7 mph - N/A   Light Freezing Rain
7:00 AM 26.6 °F 18.2 °F 24.8 °F 93% 29.42 in 0.7 mi ENE 8.1 mph - N/A   Light Freezing Rain
8:00 AM 26.6 °F 19.1 °F 24.8 °F 93% 29.44 in 0.9 mi NE 6.9 mph - N/A   Light Freezing Rain
9:00 AM 26.6 °F 17.5 °F 24.8 °F 93% 29.44 in 0.9 mi ENE 9.2 mph - N/A   Light Freezing Rain
10:00 AM 26.6 °F 16.8 °F 24.8 °F 93% 29.44 in 0.9 mi NE 10.4 mph - N/A   Light Freezing Rain
11:00 AM 26.6 °F 16.2 °F 24.8 °F 93% 29.44 in 1.7 mi NE 11.5 mph - N/A   Light Freezing Rain
11:42 AM 26.6 °F 16.8 °F 24.8 °F 93% 29.44 in - North 10.4 mph - N/A   Light Freezing Rain
12:00 PM 26.6 °F 16.8 °F 24.8 °F 93% 29.44 in - North 10.4 mph - N/A Rain Light Freezing Rain
1:00 PM 26.6 °F 18.2 °F 24.8 °F 93% 29.44 in 2.5 mi NNE 8.1 mph - N/A Rain Light Freezing Rain
2:00 PM 28.4 °F 19.1 °F 24.8 °F 86% 29.44 in 2.5 mi NNE 10.4 mph - N/A Rain Light Freezing Rain
3:00 PM 26.6 °F 18.2 °F 24.8 °F 93% 29.44 in 2.5 mi NNE 8.1 mph - N/A   Overcast
4:00 PM 26.6 °F 17.5 °F 23.0 °F 86% 29.44 in 2.5 mi NNE 9.2 mph - N/A   Overcast
5:00 PM 26.6 °F 19.1 °F 23.0 °F 86% 29.47 in 2.5 mi NNE 6.9 mph - N/A   Overcast
6:00 PM 26.6 °F 17.5 °F 21.2 °F 80% 29.47 in 2.5 mi NNE 9.2 mph - N/A   Overcast
7:00 PM 24.8 °F 16.9 °F 23.0 °F 93% 29.47 in 1.9 mi North 6.9 mph - N/A Snow Light Snow
7:20 PM 24.8 °F 19.1 °F 23.0 °F 93% 29.50 in 1.7 mi North 4.6 mph - N/A Snow Light Snow
8:00 PM 24.8 °F 17.9 °F 23.0 °F 93% 29.50 in 1.2 mi NNE 5.8 mph - N/A Snow Light Snow
9:00 PM 24.8 °F 19.1 °F 23.0 °F 93% 29.50 in 1.7 mi NE 4.6 mph - N/A Snow Light Snow
9:31 PM 24.8 °F 20.5 °F 23.0 °F 93% 29.53 in - NE 3.5 mph - N/A   Overcast
10:00 PM 24.8 °F 20.5 °F 21.2 °F 86% 29.53 in 2.5 mi NE 3.5 mph - N/A   Overcast
11:00 PM 24.8 °F - 21.2 °F 86% 29.53 in 2.5 mi NNE 2.3 mph - N/A   Overcast